Change the Weather History Date:

Wednesday, January 9, 2013

  Actual Average (KRPD) Record (KRPD)
Temperature  
Mean Temperature 24 °F -  
Max Temperature 32 °F 20 °F 2 °F (2015)
Min Temperature 17 °F 5 °F -5 °F (2015)
Degree Days  
Heating Degree Days 40    
Moisture  
Dew Point 21 °F    
Average Humidity 75    
Maximum Humidity 86    
Minimum Humidity 60    
Precipitation  
Precipitation 0.00 in - - ()
Sea Level Pressure  
Sea Level Pressure 30.11 in    
Wind  
Wind Speed 13 mph (WSW)    
Max Wind Speed 24 mph    
Max Gust Speed 32 mph    
Visibility 10 miles    
Events      
Averages and records for this station are not official NWS values.
T = Trace of Precipitation, MM = Missing Value Source: NWS Daily Summary

Daily Weather History Graph

Daily Weather History Graph

Search for Another Location

Airport or City:

Trip Planner

Search our weather history database for the weather conditions in past years. The results will help you decide how hot, cold, wet, or windy it might be!

Date:

Astronomy

Jan. 09, 2013 Rise Set
Actual Time 7:46 AM CST 4:43 PM CST
Civil Twilight 7:13 AM CST 5:17 PM CST
Nautical Twilight 6:36 AM CST 5:54 PM CST
Astronomical Twilight 6:00 AM CST 6:30 PM CST
Moon 5:26 AM CST (1/9) 2:45 PM CST (1/9)
Length of Visible Light 10h 04m
Length of Day
8h 57m
Waning Crescent, 6% of the Moon is Illuminated
Jan 9
Waning Crescent
Jan 11
New
Jan 18
First Quarter
Jan 26
Full
Feb 3
Last Quarter

Hourly Weather History & Observations

Time (CST) Temp. Windchill Dew Point Humidity Pressure Visibility Wind Dir Wind Speed Gust Speed Precip Events Conditions
12:15 AM 30.2 °F 18.9 °F 26.6 °F 86% 29.82 in 10.0 mi West 16.1 mph 20.7 mph N/A   Overcast
12:35 AM 30.2 °F 20.2 °F 26.6 °F 86% 29.82 in 10.0 mi WSW 12.7 mph - N/A   Overcast
12:55 AM 30.2 °F 20.2 °F 26.6 °F 86% 29.83 in 10.0 mi WSW 12.7 mph - N/A   Overcast
1:15 AM 30.2 °F 20.8 °F 26.6 °F 86% 29.84 in 10.0 mi WSW 11.5 mph - N/A   Overcast
1:35 AM 30.2 °F 20.8 °F 26.6 °F 86% 29.84 in 10.0 mi WSW 11.5 mph 18.4 mph N/A   Overcast
1:55 AM 30.2 °F 18.9 °F 26.6 °F 86% 29.85 in 10.0 mi WSW 16.1 mph 20.7 mph N/A   Overcast
2:15 AM 30.2 °F 20.2 °F 26.6 °F 86% 29.85 in 10.0 mi WSW 12.7 mph - N/A   Overcast
2:35 AM 30.2 °F 21.3 °F 26.6 °F 86% 29.85 in 10.0 mi WSW 10.4 mph - N/A   Overcast
2:55 AM 30.2 °F 20.2 °F 26.6 °F 86% 29.85 in 10.0 mi WSW 12.7 mph - N/A   Scattered Clouds
3:15 AM 30.2 °F 20.2 °F 24.8 °F 80% 29.85 in 10.0 mi WSW 12.7 mph - N/A   Clear
3:35 AM 28.4 °F 18.5 °F 24.8 °F 86% 29.85 in 10.0 mi SW 11.5 mph - N/A   Clear
3:55 AM 30.2 °F 20.8 °F 24.8 °F 80% 29.86 in 10.0 mi SW 11.5 mph - N/A   Mostly Cloudy
4:15 AM 30.2 °F 20.8 °F 24.8 °F 80% 29.86 in 10.0 mi WSW 11.5 mph - N/A   Scattered Clouds
4:35 AM 28.4 °F 18.5 °F 24.8 °F 86% 29.86 in 10.0 mi SW 11.5 mph - N/A   Scattered Clouds
4:55 AM 28.4 °F 16.6 °F 24.8 °F 86% 29.86 in 10.0 mi WSW 16.1 mph - N/A   Clear
5:15 AM 30.2 °F 18.1 °F 26.6 °F 86% 29.86 in 10.0 mi WSW 18.4 mph 21.9 mph N/A   Clear
5:35 AM 32.0 °F 19.2 °F 26.6 °F 80% 29.88 in 10.0 mi West 23.0 mph 28.8 mph N/A   Mostly Cloudy
6:15 AM 32.0 °F 20.1 °F 24.8 °F 75% 29.89 in 10.0 mi West 19.6 mph 31.1 mph N/A   Mostly Cloudy
6:35 AM 32.0 °F 19.5 °F 24.8 °F 75% 29.91 in 10.0 mi West 21.9 mph 27.6 mph N/A   Scattered Clouds
7:15 AM 30.2 °F 18.5 °F 23.0 °F 75% 29.94 in 10.0 mi West 17.3 mph 27.6 mph N/A   Scattered Clouds
7:35 AM 30.2 °F 16.8 °F 23.0 °F 75% 29.95 in 10.0 mi West 23.0 mph 27.6 mph N/A   Scattered Clouds
7:55 AM 30.2 °F 17.4 °F 23.0 °F 75% 29.97 in 10.0 mi West 20.7 mph 31.1 mph N/A   Scattered Clouds
8:15 AM 30.2 °F 18.1 °F 23.0 °F 75% 29.99 in 10.0 mi West 18.4 mph 26.5 mph N/A   Scattered Clouds
8:35 AM 30.2 °F 16.8 °F 21.2 °F 69% 30.01 in 10.0 mi West 23.0 mph 32.2 mph N/A   Scattered Clouds
8:55 AM 30.2 °F 16.5 °F 21.2 °F 69% 30.02 in 10.0 mi WNW 24.2 mph 32.2 mph N/A   Clear
9:15 AM 30.2 °F 17.8 °F 21.2 °F 69% 30.03 in 10.0 mi West 19.6 mph 27.6 mph N/A   Clear
9:35 AM 30.2 °F 17.8 °F 21.2 °F 69% 30.03 in 10.0 mi WNW 19.6 mph 26.5 mph N/A   Clear
9:55 AM 30.2 °F 17.4 °F 21.2 °F 69% 30.05 in 10.0 mi West 20.7 mph 31.1 mph N/A   Clear
10:15 AM 30.2 °F 17.1 °F 21.2 °F 69% 30.07 in 10.0 mi West 21.9 mph 29.9 mph N/A   Clear
10:35 AM 30.2 °F 17.4 °F 21.2 °F 69% 30.08 in 10.0 mi WNW 20.7 mph 27.6 mph N/A   Clear
10:55 AM 30.2 °F 18.9 °F 21.2 °F 69% 30.08 in 10.0 mi West 16.1 mph - N/A   Clear
11:15 AM 30.2 °F 18.5 °F 21.2 °F 69% 30.09 in 10.0 mi West 17.3 mph 24.2 mph N/A   Clear
11:55 AM 32.0 °F 22.5 °F 21.2 °F 64% 30.10 in 10.0 mi West 12.7 mph - N/A   Clear
12:15 PM 32.0 °F 21.6 °F 21.2 °F 64% 30.12 in 10.0 mi West 15.0 mph 21.9 mph N/A   Clear
12:35 PM 32.0 °F 21.2 °F 21.2 °F 64% 30.13 in 10.0 mi West 16.1 mph 19.6 mph N/A   Clear
12:55 PM 32.0 °F 20.8 °F 21.2 °F 64% 30.14 in 10.0 mi West 17.3 mph 20.7 mph N/A   Clear
1:15 PM 32.0 °F 22.5 °F 21.2 °F 64% 30.16 in 10.0 mi West 12.7 mph - N/A   Clear
1:35 PM 32.0 °F 21.2 °F 21.2 °F 64% 30.20 in 10.0 mi WSW 16.1 mph - N/A   Clear
1:55 PM 32.0 °F 21.2 °F 21.2 °F 64% 30.21 in 10.0 mi West 16.1 mph - N/A   Clear
2:15 PM 32.0 °F 20.8 °F 21.2 °F 64% 30.23 in 10.0 mi West 17.3 mph - N/A   Clear
2:35 PM 32.0 °F 22.1 °F 19.4 °F 60% 30.24 in 10.0 mi West 13.8 mph 19.6 mph N/A   Clear
2:55 PM 32.0 °F 22.1 °F 21.2 °F 64% 30.25 in 10.0 mi West 13.8 mph 18.4 mph N/A   Clear
3:15 PM 32.0 °F 22.5 °F 19.4 °F 60% 30.26 in 10.0 mi West 12.7 mph - N/A   Clear
3:35 PM 32.0 °F 22.5 °F 19.4 °F 60% 30.27 in 10.0 mi West 12.7 mph 16.1 mph N/A   Clear
3:55 PM 32.0 °F 23.6 °F 19.4 °F 60% 30.29 in 10.0 mi West 10.4 mph 16.1 mph N/A   Clear
4:15 PM 30.2 °F 21.9 °F 19.4 °F 64% 30.29 in 10.0 mi WSW 9.2 mph - N/A   Clear
4:35 PM 28.4 °F 20.4 °F 19.4 °F 69% 30.29 in 10.0 mi WSW 8.1 mph - N/A   Clear
4:55 PM 28.4 °F 21.2 °F 19.4 °F 69% 30.30 in 10.0 mi WSW 6.9 mph - N/A   Clear
5:15 PM 26.6 °F 20.0 °F 17.6 °F 69% 30.30 in 10.0 mi SW 5.8 mph - N/A   Clear
5:35 PM 24.8 °F 19.1 °F 17.6 °F 74% 30.29 in 10.0 mi WSW 4.6 mph - N/A   Clear
5:55 PM 23.0 °F 13.9 °F 15.8 °F 74% 30.31 in 10.0 mi SW 8.1 mph - N/A   Clear
6:15 PM 24.8 °F 16.1 °F 17.6 °F 74% 30.32 in 10.0 mi SW 8.1 mph - N/A   Clear
6:35 PM 23.0 °F 14.7 °F 17.6 °F 80% 30.31 in 10.0 mi SW 6.9 mph - N/A   Clear
6:55 PM 23.0 °F 17.0 °F 17.6 °F 80% 30.31 in 10.0 mi WSW 4.6 mph - N/A   Clear
7:15 PM 21.2 °F 16.4 °F 15.8 °F 80% 30.31 in 10.0 mi South 3.5 mph - N/A   Clear
7:35 PM 21.2 °F 14.9 °F 15.8 °F 80% 30.31 in 10.0 mi South 4.6 mph - N/A   Clear
7:55 PM 21.2 °F - 15.8 °F 80% 30.30 in 10.0 mi Calm Calm - N/A   Clear
8:15 PM 21.2 °F 14.9 °F 15.8 °F 80% 30.31 in 10.0 mi SSE 4.6 mph - N/A   Clear
8:35 PM 23.0 °F 18.4 °F 15.8 °F 74% 30.31 in 10.0 mi SE 3.5 mph - N/A   Clear
8:55 PM 19.4 °F 14.3 °F 14.0 °F 80% 30.30 in 10.0 mi SE 3.5 mph - N/A   Clear
9:15 PM 17.6 °F 10.7 °F 14.0 °F 86% 30.31 in 10.0 mi South 4.6 mph - N/A   Clear
9:35 PM 21.2 °F 16.4 °F 17.6 °F 86% 30.30 in 10.0 mi SE 3.5 mph - N/A   Clear
9:55 PM 19.4 °F - 14.0 °F 80% 30.30 in 10.0 mi Calm Calm - N/A   Clear
10:15 PM 19.4 °F 14.3 °F 14.0 °F 80% 30.28 in 10.0 mi East 3.5 mph - N/A   Clear
10:35 PM 19.4 °F 12.8 °F 14.0 °F 80% 30.28 in 10.0 mi SE 4.6 mph - N/A   Clear
10:55 PM 17.6 °F 8.2 °F 12.2 °F 79% 30.29 in 10.0 mi South 6.9 mph - N/A   Clear
11:15 PM 17.6 °F 12.3 °F 14.0 °F 86% 30.30 in 10.0 mi South 3.5 mph - N/A   Clear
11:35 PM 19.4 °F 14.3 °F 14.0 °F 80% 30.30 in 10.0 mi SSE 3.5 mph - N/A   Clear
11:55 PM 19.4 °F - 15.8 °F 86% 30.31 in 10.0 mi Calm Calm - N/A   Clear